KD2RHT-13 Weather Reports


Display with metric or nautical units.
time (UTC)temp
F
wind
direction
speed
MPH
gust
MPH
rain 1hr
in
rain 24hr
in
rain mn
in
humidity
%
barometer
mb
20260903215834 80 164 0.0 0.0 0.00 0.00 0.00 76 1013.9
20260903215331 80 160 0.0 0.0 0.00 0.00 0.00 77 1014.2
20260903214829 80 166 0.0 0.0 0.00 0.00 0.00 75 1013.9
20260903214326 80 150 1.0 1.0 0.00 0.00 0.00 74 1013.9
20260903213820 80 167 0.0 0.0 0.00 0.00 0.00 75 1013.9
20260903213315 81 176 0.0 1.0 0.00 0.00 0.00 75 1013.9
20260903212811 81 164 0.0 0.0 0.00 0.00 0.00 76 1013.9
20260903212308 82 164 0.0 1.0 0.00 0.00 0.00 76 1013.9
20260903211806 82 154 0.0 0.0 0.00 0.00 0.00 76 1013.9
20260903211303 82 151 0.0 0.0 0.00 0.00 0.00 74 1013.9
20260903210758 82 54 0.0 1.0 0.00 0.00 0.00 75 1013.9
20260903210254 82 169 1.0 2.0 0.00 0.00 0.00 75 1014.2
20260903205748 82 174 0.0 1.0 0.00 0.00 0.00 76 1014.5
20260903205247 82 262 1.0 2.0 0.00 0.00 0.00 74 1014.2
20260903204742 82 197 2.0 2.0 0.00 0.00 0.00 72 1014.2
20260903204233 82 244 1.0 2.0 0.00 0.00 0.00 72 1014.2
20260903203729 83 233 1.0 2.0 0.00 0.00 0.00 73 1014.5
20260903203224 83 163 0.0 1.0 0.00 0.00 0.00 72 1014.5
20260903202717 83 224 3.0 5.0 0.00 0.00 0.00 71 1014.2
20260903202214 82 169 0.0 0.0 0.00 0.00 0.00 71 1014.2
20260903201713 83 161 0.0 0.0 0.00 0.00 0.00 70 1014.2
20260903201208 83 154 0.0 0.0 0.00 0.00 0.00 70 1014.2
20260903200702 84 115 1.0 1.0 0.00 0.00 0.00 70 1014.2
20260903200158 82 159 0.0 0.0 0.00 0.00 0.00 71 1014.5
20260903195654 83 169 0.0 0.0 0.00 0.00 0.00 71 1014.2
20260903195149 83 124 1.0 1.0 0.00 0.00 0.00 69 1014.9
20260903194649 84 160 0.0 0.0 0.00 0.00 0.00 68 1014.5
20260903194144 85 189 0.0 0.0 0.00 0.00 0.00 67 1014.5
20260903193640 84 167 0.0 0.0 0.00 0.00 0.00 68 1014.5
20260903193135 84 176 0.0 0.0 0.00 0.00 0.00 67 1014.5
20260903192632 85 153 2.0 3.0 0.00 0.00 0.00 68 1014.5
20260903192132 84 96 2.0 3.0 0.00 0.00 0.00 67 1014.5
20260903191628 83 294 3.0 5.0 0.00 0.00 0.00 67 1014.5
20260903191128 85 172 1.0 1.0 0.00 0.00 0.00 66 1014.9
20260903190627 85 153 1.0 1.0 0.00 0.00 0.00 64 1014.9
20260903190122 85 239 3.0 3.0 0.00 0.00 0.00 66 1014.5
20260903185618 85 163 0.0 0.0 0.00 0.00 0.00 66 1014.5
20260903185117 86 164 0.0 0.0 0.00 0.00 0.00 68 1014.5
20260903184614 85 242 1.0 2.0 0.00 0.00 0.00 67 1014.9
20260903184110 86 216 1.0 1.0 0.00 0.00 0.00 65 1014.9
20260903183608 85 25 3.0 5.0 0.00 0.00 0.00 67 1014.9
20260903183104 85 256 3.0 5.0 0.00 0.00 0.00 67 1014.9
20260903182603 84 205 1.0 1.0 0.00 0.00 0.00 68 1014.9
20260903182059 84 137 1.0 2.0 0.00 0.00 0.00 69 1014.9
20260903181557 85 177 1.0 1.0 0.00 0.00 0.00 68 1014.9
20260903181052 86 144 1.0 1.0 0.00 0.00 0.00 68 1014.9
20260903180547 85 158 0.0 0.0 0.00 0.00 0.00 70 1014.9
20260903180047 85 182 2.0 2.0 0.00 0.00 0.00 68 1014.9
20260903175545 84 163 0.0 0.0 0.00 0.00 0.00 68 1014.9
20260903175045 84 250 2.0 2.0 0.00 0.00 0.00 65 1014.9
20260903174540 85 187 0.0 1.0 0.00 0.00 0.00 69 1014.9
20260903174035 84 169 0.0 0.0 0.00 0.00 0.00 70 1014.9
20260903173530 84 179 1.0 1.0 0.00 0.00 0.00 68 1014.9
20260903173026 82 144 0.0 1.0 0.00 0.00 0.00 76 1014.9
20260903172520 82 116 2.0 3.0 0.00 0.00 0.00 74 1014.9
20260903172016 82 223 2.0 2.0 0.00 0.00 0.00 71 1015.2
20260903171511 82 143 1.0 2.0 0.00 0.00 0.00 73 1015.2
20260903171006 81 164 0.0 1.0 0.00 0.00 0.00 74 1014.9
20260903170505 82 159 0.0 1.0 0.00 0.00 0.00 71 1014.9
20260903170000 82 137 0.0 0.0 0.00 0.00 0.00 74 1015.2
20260903165458 81 164 1.0 1.0 0.00 0.00 0.00 73 1015.2
20260903164954 82 347 4.0 5.0 0.00 0.00 0.00 71 1015.6
20260903164443 83 309 1.0 2.0 0.00 0.00 0.00 71 1015.2
20260903163943 84 159 2.0 2.0 0.00 0.00 0.00 71 1015.2
20260903163439 83 157 1.0 2.0 0.00 0.00 0.00 73 1015.2
20260903162935 82 147 3.0 3.0 0.00 0.00 0.00 71 1015.6
20260903162431 83 263 1.0 1.0 0.00 0.00 0.00 75 1015.6
20260903161926 83 214 2.0 2.0 0.00 0.00 0.00 75 1015.6
20260903161421 82 139 1.0 1.0 0.00 0.00 0.00 79 1015.6
20260903160918 82 147 0.0 0.0 0.00 0.00 0.00 77 1015.6
20260903160416 82 305 3.0 5.0 0.00 0.00 0.00 73 1015.6
20260903155915 82 195 1.0 1.0 0.00 0.00 0.00 80 1015.6
20260903155410 80 350 3.0 5.0 0.00 0.00 0.00 82 1015.6
20260903154906 80 334 5.0 7.0 0.00 0.00 0.00 81 1015.9
20260903154402 81 146 1.0 2.0 0.00 0.00 0.00 80 1015.2
20260903153856 81 163 0.0 0.0 0.00 0.00 0.00 82 1015.9
20260903153352 80 117 1.0 1.0 0.00 0.00 0.00 83 1015.6
20260903152849 79 162 0.0 0.0 0.00 0.00 0.00 86 1015.9
20260903152344 80 57 2.0 2.0 0.00 0.00 0.00 86 1015.9
20260903151839 79 93 1.0 1.0 0.00 0.00 0.00 85 1015.9
20260903151335 80 164 0.0 0.0 0.00 0.00 0.00 85 1015.9
20260903150835 80 249 1.0 3.0 0.00 0.00 0.00 86 1015.9
20260903150335 79 156 1.0 1.0 0.00 0.00 0.00 87 1015.9
20260903145830 78 155 0.0 1.0 0.00 0.00 0.00 88 1015.6
20260903145325 77 158 0.0 0.0 0.00 0.00 0.00 92 1016.2
20260903144824 76 152 0.0 0.0 0.00 0.00 0.00 94 1015.9
20260903144319 75 163 1.0 1.0 0.00 0.00 0.00 93 1015.9
20260903143815 75 155 0.0 0.0 0.00 0.00 0.00 94 1015.9
20260903143312 75 170 2.0 3.0 0.00 0.00 0.00 95 1015.9
20260903142807 74 212 2.0 3.0 0.00 0.00 0.00 95 1015.9
20260903142306 74 159 0.0 0.0 0.00 0.00 0.00 96 1015.9
20260903141758 74 130 1.0 2.0 0.00 0.00 0.00 97 1015.9
20260903141255 73 166 1.0 1.0 0.00 0.00 0.00 97 1015.9
20260903140754 73 163 0.0 0.0 0.00 0.00 0.00 97 1015.6
20260903140249 73 164 0.0 0.0 0.00 0.00 0.00 98 1015.9
20260903135746 73 121 0.0 0.0 0.00 0.00 0.00 98 1015.6
20260903135246 72 152 0.0 0.0 0.00 0.00 0.00 98 1015.9
20260903134744 72 174 1.0 1.0 0.00 0.00 0.00 99 1015.2
20260903134241 72 157 0.0 0.0 0.00 0.00 0.00 99 1015.6
20260903133738 71 133 1.0 2.0 0.00 0.00 0.00 99 1015.6
20260903133235 71 154 0.0 0.0 0.00 0.00 0.00 99 1015.9
20260903132734 71 161 0.0 0.0 0.00 0.00 0.00 99 1015.6
20260903132229 71 165 0.0 0.0 0.00 0.00 0.00 99 1015.6
20260903131725 71 161 0.0 1.0 0.00 0.00 0.00 99 1015.6
20260903131224 70 188 0.0 0.0 0.00 0.00 0.00 99 1015.6
20260903130719 70 171 0.0 1.0 0.00 0.00 0.00 99 1015.9
20260903130214 70 154 0.0 0.0 0.00 0.00 0.00 99 1015.6
20260903125712 70 160 0.0 0.0 0.00 0.00 0.00 99 1015.6
20260903125208 69 157 0.0 0.0 0.00 0.00 0.00 99 1015.9
20260903124706 69 163 0.0 0.0 0.00 0.00 0.00 99 1015.6
20260903124202 69 162 0.0 0.0 0.00 0.00 0.00 99 1015.6
20260903123701 69 163 0.0 0.0 0.00 0.00 0.00 99 1015.6
20260903123200 69 158 0.0 0.0 0.00 0.00 0.00 99 1015.6
20260903122659 69 162 0.0 0.0 0.00 0.00 0.00 99 1015.6
20260903122154 69 169 0.0 0.0 0.00 0.00 0.00 99 1015.9
20260903121653 69 163 0.0 0.0 0.00 0.00 0.00 99 1015.6
20260903121149 69 158 0.0 0.0 0.00 0.00 0.00 99 1015.6
20260903120648 69 162 0.0 0.0 0.00 0.00 0.00 99 1015.6
20260903120143 69 162 0.0 0.0 0.00 0.00 0.00 99 1015.9
20260903115641 69 162 0.0 0.0 0.00 0.00 0.00 99 1015.2
20260903115136 69 162 0.0 0.0 0.00 0.00 0.00 99 1015.6
20260903114632 69 160 0.0 0.0 0.00 0.00 0.00 99 1015.6
20260903114127 69 171 0.0 1.0 0.00 0.00 0.00 99 1015.2
20260903113622 69 164 0.0 0.0 0.00 0.00 0.00 99 1014.9
20260903113118 68 162 0.0 0.0 0.00 0.00 0.00 99 1014.9
20260903112609 68 162 0.0 0.0 0.00 0.00 0.00 99 1014.9
20260903112108 68 162 0.0 0.0 0.00 0.00 0.00 99 1015.2
20260903111607 68 162 0.0 0.0 0.00 0.00 0.00 99 1014.9
20260903111103 68 162 0.0 0.0 0.00 0.00 0.00 99 1014.9
20260903110600 68 162 0.0 0.0 0.00 0.00 0.00 99 1014.9
20260903110059 68 158 0.0 0.0 0.00 0.00 0.00 99 1014.9
20260903105554 68 162 0.0 0.0 0.00 0.00 0.00 99 1014.9
20260903105050 68 162 0.0 0.0 0.00 0.00 0.00 99 1014.9
20260903104549 68 159 0.0 0.0 0.00 0.00 0.00 99 1014.9
20260903104045 68 162 0.0 0.0 0.00 0.00 0.00 99 1014.5
20260903103541 67 165 0.0 0.0 0.00 0.00 0.00 99 1014.5
20260903103037 67 159 0.0 0.0 0.00 0.00 0.00 99 1014.5
20260903102532 67 159 0.0 0.0 0.00 0.00 0.00 99 1014.9
20260903102031 67 158 0.0 0.0 0.00 0.00 0.00 99 1014.5
20260903101526 67 159 0.0 0.0 0.00 0.00 0.00 99 1014.5
20260903101022 67 162 0.0 0.0 0.00 0.00 0.00 99 1014.5
20260903100516 67 158 0.0 0.0 0.00 0.00 0.00 99 1014.9
20260903100009 68 162 0.0 0.0 0.00 0.00 0.00 99 1014.5
20260903095502 68 159 0.0 0.0 0.00 0.00 0.00 99 1014.9
20260903094957 68 159 0.0 0.0 0.00 0.00 0.00 99 1014.2
20260903094456 68 157 0.0 0.0 0.00 0.00 0.00 99 1014.5
20260903093953 68 162 0.0 0.0 0.00 0.00 0.00 99 1014.5
20260903093448 68 162 0.0 0.0 0.00 0.00 0.00 99 1014.9
20260903092943 68 161 0.0 0.0 0.00 0.00 0.00 99 1014.5
20260903092443 68 160 0.0 0.0 0.00 0.00 0.00 99 1014.9
20260903091942 68 162 0.0 0.0 0.00 0.00 0.00 99 1014.9
20260903091440 68 159 0.0 0.0 0.00 0.00 0.00 99 1014.9
20260903090936 68 163 0.0 0.0 0.00 0.00 0.00 99 1014.9
20260903090431 68 163 0.0 0.0 0.00 0.00 0.00 99 1014.9
20260903085930 68 162 0.0 0.0 0.00 0.00 0.00 99 1014.5
20260903085428 68 161 0.0 0.0 0.00 0.00 0.00 99 1014.9
20260903084928 68 162 0.0 0.0 0.00 0.00 0.00 99 1014.5
20260903084427 68 157 0.0 0.0 0.00 0.00 0.00 99 1014.5
20260903083922 68 162 0.0 0.0 0.00 0.00 0.00 99 1014.5
20260903083418 68 164 0.0 0.0 0.00 0.00 0.00 99 1014.5
20260903082917 68 160 0.0 0.0 0.00 0.00 0.00 99 1014.5
20260903082412 68 159 0.0 0.0 0.00 0.00 0.00 99 1014.5
20260903081907 67 159 0.0 0.0 0.00 0.00 0.00 99 1014.9
20260903081402 67 159 0.0 0.0 0.00 0.00 0.00 99 1014.9
20260903080859 67 162 0.0 0.0 0.00 0.00 0.00 99 1014.9
20260903080355 67 158 0.0 0.0 0.00 0.00 0.00 99 1014.2
20260903075855 67 158 0.0 0.0 0.00 0.00 0.00 99 1014.9
20260903075351 68 159 0.0 0.0 0.00 0.00 0.00 99 1014.5
20260903074844 68 157 0.0 0.0 0.00 0.00 0.00 99 1014.5
20260903074338 67 162 0.0 0.0 0.00 0.00 0.00 99 1014.9
20260903073834 67 157 0.0 0.0 0.00 0.00 0.00 99 1014.9
20260903073329 68 160 0.0 0.0 0.00 0.00 0.00 99 1014.9
20260903072825 67 160 0.0 0.0 0.00 0.00 0.00 99 1014.9
20260903072321 68 159 0.0 0.0 0.00 0.00 0.00 99 1014.9
20260903071818 68 159 0.0 0.0 0.00 0.00 0.00 99 1014.9
20260903071313 68 160 0.0 0.0 0.00 0.00 0.00 99 1015.2
20260903070808 68 160 0.0 0.0 0.00 0.00 0.00 99 1015.2
20260903070304 68 162 0.0 0.0 0.00 0.00 0.00 99 1014.9
20260903065759 68 160 0.0 0.0 0.00 0.00 0.00 99 1015.2
20260903065258 68 160 0.0 0.0 0.00 0.00 0.00 99 1015.2
20260903064757 68 161 0.0 0.0 0.00 0.00 0.00 99 1015.2
20260903064253 68 163 0.0 0.0 0.00 0.00 0.00 99 1015.2
20260903063749 68 160 0.0 0.0 0.00 0.00 0.00 99 1014.9
20260903063249 68 162 0.0 0.0 0.00 0.00 0.00 99 1015.2
20260903062745 67 158 0.0 0.0 0.00 0.00 0.00 99 1014.9
20260903062244 68 159 0.0 0.0 0.00 0.00 0.00 99 1014.9
20260903061741 68 160 0.0 0.0 0.00 0.00 0.00 99 1015.2
20260903061239 68 170 0.0 0.0 0.00 0.00 0.00 99 1014.9
20260903060736 68 158 0.0 0.0 0.00 0.00 0.00 99 1014.9
20260903060235 67 164 0.0 0.0 0.00 0.00 0.00 99 1015.2
20260903055732 67 160 0.0 0.0 0.00 0.00 0.00 99 1014.9
20260903055231 67 158 0.0 0.0 0.00 0.00 0.00 99 1014.9
20260903054726 67 160 0.0 0.0 0.00 0.00 0.00 99 1014.9
20260903054221 67 153 0.0 0.0 0.00 0.00 0.00 99 1014.9
20260903053718 67 158 0.0 0.0 0.00 0.00 0.00 99 1014.9
20260903053213 67 158 0.0 0.0 0.00 0.00 0.00 99 1014.9
20260903052709 68 159 0.0 0.0 0.00 0.00 0.00 99 1014.9
20260903052204 68 158 0.0 0.0 0.00 0.00 0.00 99 1014.9
20260903051704 68 158 0.0 0.0 0.00 0.00 0.00 99 1014.9
20260903051200 68 158 0.0 0.0 0.00 0.00 0.00 99 1014.9
20260903050656 68 160 0.0 0.0 0.00 0.00 0.00 99 1014.5
20260903050154 68 153 0.0 0.0 0.00 0.00 0.00 99 1014.9
20260903045650 68 158 0.0 0.0 0.00 0.00 0.00 99 1014.9
20260903045146 68 158 0.0 0.0 0.00 0.00 0.00 99 1014.9
20260903044642 68 158 0.0 0.0 0.00 0.00 0.00 99 1014.9
20260903044137 68 160 0.0 0.0 0.00 0.00 0.00 99 1014.9
20260903043634 68 159 0.0 0.0 0.00 0.00 0.00 99 1014.5
20260903043132 68 158 0.0 0.0 0.00 0.00 0.00 99 1014.5
20260903042626 68 158 0.0 0.0 0.00 0.00 0.00 99 1014.5
20260903042121 68 159 0.0 0.0 0.00 0.00 0.00 99 1014.9
20260903041618 68 156 0.0 0.0 0.00 0.00 0.00 99 1014.9
20260903041114 68 159 0.0 0.0 0.00 0.00 0.00 99 1014.9
20260903040612 68 159 0.0 0.0 0.00 0.00 0.00 99 1015.2
20260903040109 68 164 0.0 0.0 0.00 1.29 1.29 99 1015.6
20260903035604 69 158 0.0 0.0 0.00 1.29 1.29 99 1015.2
20260903035100 69 149 1.0 2.0 0.00 1.29 1.29 99 1015.6
20260903034554 68 158 0.0 0.0 0.00 1.29 1.29 99 1015.2
20260903034050 69 191 1.0 2.0 0.00 1.29 1.29 99 1014.9
20260903033544 69 161 0.0 0.0 0.00 1.29 1.29 99 1015.6
20260903033040 69 174 0.0 1.0 0.00 1.29 1.29 99 1015.2
20260903032535 69 163 0.0 0.0 0.00 1.29 1.29 99 1015.2
20260903032030 69 166 0.0 0.0 0.00 1.29 1.29 99 1015.2
20260903031530 69 174 0.0 0.0 0.00 1.29 1.29 99 1014.9
20260903031025 69 154 0.0 0.0 0.00 1.29 1.29 99 1014.9
20260903030521 69 212 0.0 0.0 0.00 1.29 1.29 99 1014.2
20260903030017 69 166 0.0 0.0 0.00 1.29 1.29 99 1013.9
20260903025512 69 175 1.0 1.0 0.00 1.29 1.29 99 1013.5
20260903025008 69 163 0.0 1.0 0.00 1.29 1.29 99 1013.9
20260903024507 69 130 4.0 6.0 0.00 1.29 1.29 99 1013.5
20260903024001 69 218 6.0 9.0 0.00 1.29 1.29 99 1013.5
20260903023457 70 124 2.0 2.0 0.00 1.29 1.29 99 1013.9
20260903022952 71 74 3.0 3.0 0.07 1.29 1.29 99 1013.9
20260903022451 71 180 1.0 2.0 0.07 1.29 1.29 99 1013.9
20260903021950 72 157 1.0 1.0 0.00 1.28 1.28 99 1014.5
20260903021446 72 148 1.0 1.0 0.00 1.28 1.28 99 1014.9
20260903020941 72 148 0.0 0.0 0.00 1.28 1.28 99 1015.2
20260903020436 72 162 0.0 0.0 0.05 1.28 1.28 99 1014.9
20260903015930 72 172 1.0 1.0 0.07 1.27 1.27 99 1014.9
20260903015427 72 172 1.0 2.0 0.19 1.27 1.27 99 1014.5
20260903014927 72 142 2.0 2.0 0.17 1.26 1.26 99 1014.2
20260903014426 72 166 2.0 3.0 0.12 1.24 1.24 99 1015.2
20260903013921 72 132 0.0 0.0 0.19 1.23 1.23 99 1015.6
20260903013421 72 201 2.0 2.0 0.12 1.21 1.21 99 1015.9
20260903012921 72 157 3.0 3.0 0.12 1.20 1.20 99 1015.9
20260903012420 73 155 2.0 2.0 0.14 1.19 1.19 99 1015.2
20260903011919 73 265 0.0 2.0 0.12 1.18 1.18 99 1014.9
20260903011414 73 155 3.0 5.0 0.17 1.17 1.17 99 1014.9
20260903010909 73 147 2.0 5.0 0.24 1.16 1.16 99 1014.2
20260903010405 73 153 1.0 1.0 0.24 1.14 1.14 99 1014.9
20260903005902 73 186 1.0 1.0 0.19 1.12 1.12 99 1015.9
20260903005358 74 170 1.0 1.0 0.07 1.10 1.10 99 1015.9
20260903004854 74 160 0.0 1.0 0.05 1.09 1.09 99 1016.2
20260903004349 75 165 0.0 0.0 0.12 1.09 1.09 99 1016.2
20260903003844 75 159 0.0 0.0 0.19 1.08 1.08 97 1015.9
20260903003338 75 167 0.0 0.0 0.19 1.07 1.07 96 1015.6
20260903002838 76 163 0.0 0.0 0.07 1.05 1.05 94 1015.6
20260903002333 76 155 0.0 0.0 0.00 1.04 1.04 93 1015.9
20260903001828 76 157 0.0 0.0 0.00 1.04 1.04 93 1015.9
20260903001323 76 163 0.0 0.0 0.00 1.04 1.04 93 1015.9
20260903000823 76 191 1.0 1.0 0.00 1.04 1.04 92 1015.6
20260903000319 76 171 2.0 3.0 0.00 1.04 1.04 92 1015.6
20260902235816 76 95 1.0 2.0 0.00 1.04 1.04 92 1015.2
20260902235312 76 162 0.0 0.0 0.00 1.04 1.04 93 1014.9
20260902234806 76 144 1.0 1.0 0.00 1.04 1.04 93 1014.9
20260902234305 76 131 0.0 1.0 0.00 1.04 1.04 92 1014.9
20260902233800 76 154 1.0 1.0 0.00 1.04 1.04 92 1014.5
20260902233259 76 153 4.0 5.0 0.00 1.04 1.04 92 1014.5
20260902232757 77 218 3.0 3.0 0.00 1.04 1.04 92 1014.9
20260902232252 77 176 0.0 0.0 0.00 1.04 1.04 92 1014.9
20260902231746 77 157 2.0 2.0 0.00 1.04 1.04 91 1014.9
20260902231242 77 140 1.0 1.0 0.00 1.04 1.04 91 1015.2
20260902230741 77 186 0.0 1.0 0.00 1.04 1.04 91 1015.6
20260902230240 77 230 4.0 5.0 0.00 1.04 1.04 90 1014.5
20260902225735 77 167 1.0 2.0 0.00 1.04 1.04 90 1014.5
20260902225230 77 164 3.0 3.0 0.00 1.04 1.04 90 1014.5
20260902224728 78 86 1.0 2.0 0.00 1.04 1.04 89 1014.5
20260902224224 78 144 4.0 7.0 0.00 1.04 1.04 89 1014.2
20260902223720 78 118 2.0 3.0 0.00 1.04 1.04 89 1013.9
20260902223220 78 174 5.0 6.0 0.00 1.04 1.04 88 1014.2
20260902222719 79 120 4.0 6.0 0.00 1.04 1.04 88 1014.2
20260902222218 79 178 2.0 3.0 0.00 1.04 1.04 87 1014.2
20260902221714 79 134 1.0 2.0 0.00 1.04 1.04 87 1014.2
20260902221213 79 178 3.0 5.0 0.00 1.04 1.04 87 1013.9
20260902220708 79 157 2.0 2.0 0.00 1.04 1.04 87 1013.5